Location: Bletchingley
(51.2333°N, 0.1000°W)
Time: 22:26:34
(UTC+00:00)

ERS-1 Rocket - Pass Details

Date: 18 September 2020
Orbit: 753 x 757 km, 98.5° (Epoch: 31 October)

Event Time Altitude Azimuth Distance (km) Brightness Sun altitude
Exits shadow 20:57:21 49° 52° (NE) 972 3.4 -25.4°
Drops below altitude 10° 21:01:51 10° 354° (N) 2,297 6.0 -26.0°
Sets 21:04:12 0° 349° (N) 3,228 7.0 -26.2°
